Sanford, ME

11:01 PM EDT on May 25, 2017 (GMT -0400)
Sanford Regional

Weather History for KSFM - January, 2014

Change the Weather History Date:

Thursday, January 2, 2014

  Actual Average Record
Temperature  
Mean Temperature 4 °F -  
Max Temperature 12 °F 32 °F 46 °F (2012)
Min Temperature -5 °F 15 °F -7 °F (1999)
Degree Days  
Heating Degree Days 62    
Moisture  
Dew Point -5 °F    
Average Humidity 75    
Maximum Humidity 92    
Minimum Humidity 65    
Precipitation  
Precipitation 0.00 in - - ()
Sea Level Pressure  
Sea Level Pressure 30.22 in    
Wind  
Wind Speed 10 mph (NNE)    
Max Wind Speed 24 mph    
Max Gust Speed 31 mph    
Visibility 3 miles    
Events      
Averages and records for this station are not official NWS values.
T = Trace of Precipitation, MM = Missing Value Source: NWS Daily Summary

Daily Weather History Graph

Daily Weather History Graph

Search for Another Location

Airport or City:

Trip Planner

Search our weather history database for the weather conditions in past years. The results will help you decide how hot, cold, wet, or windy it might be!

Date:

Astronomy

Jan. 02, 2014 Rise Set
Actual Time 7:15 AM EST 4:18 PM EST
Civil Twilight 6:43 AM EST 4:50 PM EST
Nautical Twilight 6:07 AM EST 5:26 PM EST
Astronomical Twilight 5:32 AM EST 6:01 PM EST
Moon 7:51 AM EST (1/2) 6:15 PM EST (1/2)
Length of Visible Light 10h 07m
Length of Day
9h 02m
New Moon, 2% of the Moon is Illuminated
Jan 2
New Moon
Jan 7
First Quarter
Jan 15
Full
Jan 24
Last Quarter
Jan 30
New

Hourly Weather History & Observations

Time (EST) Temp. Windchill Dew Point Humidity Pressure Visibility Wind Dir Wind Speed Gust Speed Precip Events Conditions
12:15 AM 10.4 °F - 1.4 °F 67% 30.36 in 10.0 mi Calm Calm - N/A   Clear
12:35 AM 10.4 °F - 6.8 °F 85% 30.35 in 10.0 mi Calm Calm - N/A   Scattered Clouds
12:55 AM 10.4 °F - 3.2 °F 73% 30.35 in 10.0 mi Calm Calm - N/A   Overcast
1:15 AM 10.4 °F - 8.6 °F 92% 30.35 in 10.0 mi Calm Calm - N/A   Mostly Cloudy
1:35 AM 10.4 °F - 3.2 °F 73% 30.35 in 10.0 mi Calm Calm - N/A   Overcast
1:55 AM 10.4 °F - 8.6 °F 92% 30.35 in 10.0 mi Calm Calm - N/A   Overcast
2:15 AM 12.2 °F 1.7 °F 5.0 °F 73% 30.35 in 10.0 mi NE 6.9 mph - N/A   Overcast
2:35 AM 12.2 °F 0.7 °F 3.2 °F 67% 30.35 in 8.0 mi NE 8.1 mph - N/A   Overcast
2:55 AM 10.4 °F -0.4 °F 3.2 °F 73% 30.35 in 10.0 mi NE 6.9 mph - N/A   Overcast
3:15 AM 10.4 °F -1.5 °F 5.0 °F 79% 30.35 in 3.0 mi NE 8.1 mph - N/A   Overcast
3:35 AM 10.4 °F -3.3 °F 3.2 °F 73% 30.34 in 2.5 mi NNE 10.4 mph - N/A   Overcast
3:55 AM 8.6 °F -3.7 °F 5.0 °F 85% 30.34 in 2.5 mi NE 8.1 mph - N/A   Overcast
4:15 AM 8.6 °F -3.7 °F 1.4 °F 73% 30.34 in 3.0 mi NE 8.1 mph - N/A   Overcast
4:35 AM 8.6 °F -3.7 °F 1.4 °F 73% 30.35 in 4.0 mi NE 8.1 mph - N/A   Overcast
4:55 AM 6.8 °F -5.9 °F -0.4 °F 72% 30.35 in 2.5 mi ENE 8.1 mph - N/A   Overcast
5:15 AM 6.8 °F -6.9 °F 3.2 °F 85% 30.35 in 1.8 mi North 9.2 mph - N/A   Overcast
5:35 AM 6.8 °F -8.6 °F -2.2 °F 67% 30.35 in 2.0 mi NNE 11.5 mph - N/A   Overcast
5:55 AM 5.0 °F -10.0 °F 1.4 °F 85% 30.35 in 4.0 mi NNE 10.4 mph - N/A   Mostly Cloudy
6:15 AM 5.0 °F -10.8 °F -2.2 °F 72% 30.35 in 5.0 mi North 11.5 mph - N/A   Overcast
6:35 AM 5.0 °F -10.0 °F 1.4 °F 85% 30.36 in 3.0 mi North 10.4 mph - N/A   Overcast
6:55 AM 3.2 °F -13.9 °F -4.0 °F 72% 30.35 in 3.0 mi NNE 12.7 mph - N/A   Overcast
7:15 AM 3.2 °F -15.9 °F -0.4 °F 85% 30.35 in 2.5 mi NNE 16.1 mph - N/A   Overcast
7:35 AM 3.2 °F -14.6 °F -4.0 °F 72% 30.35 in 1.8 mi NNE 13.8 mph - N/A   Overcast
7:55 AM 3.2 °F -13.1 °F -4.0 °F 72% 30.35 in 2.0 mi NE 11.5 mph 19.6 mph N/A   Overcast
8:15 AM 1.4 °F -18.2 °F -5.8 °F 72% 30.35 in 2.5 mi NNE 16.1 mph 20.7 mph N/A   Overcast
8:35 AM 1.4 °F -17.6 °F -2.2 °F 85% 30.36 in 1.8 mi NNE 15.0 mph 23.0 mph N/A   Overcast
8:55 AM 1.4 °F -16.1 °F -7.6 °F 66% 30.36 in 1.2 mi NNE 12.7 mph - N/A   Overcast
9:15 AM 1.4 °F -16.9 °F -2.2 °F 85% 30.36 in 1.5 mi NE 13.8 mph - N/A   Overcast
9:35 AM 1.4 °F -16.9 °F -7.6 °F 66% 30.35 in 1.2 mi NNE 13.8 mph - N/A   Overcast
9:55 AM 1.4 °F -16.1 °F -2.2 °F 85% 30.35 in 2.5 mi NNE 12.7 mph - N/A   Overcast
10:15 AM 1.4 °F -14.5 °F -7.6 °F 66% 30.35 in 1.5 mi NNE 10.4 mph - N/A   Overcast
10:35 AM 1.4 °F -16.9 °F -5.8 °F 72% 30.33 in 2.0 mi NE 13.8 mph - N/A   Overcast
10:55 AM 1.4 °F -18.2 °F -2.2 °F 85% 30.31 in 1.2 mi NNE 16.1 mph - N/A   Overcast
11:15 AM 1.4 °F -16.9 °F -7.6 °F 66% 30.30 in 1.5 mi NE 13.8 mph - N/A   Overcast
11:35 AM 1.4 °F -15.3 °F -4.0 °F 78% 30.28 in 1.8 mi NNE 11.5 mph - N/A   Overcast
11:55 AM 1.4 °F -15.3 °F -7.6 °F 66% 30.26 in 1.5 mi NNE 11.5 mph - N/A   Overcast
12:15 PM 1.4 °F -19.4 °F -4.0 °F 78% 30.23 in 1.2 mi NNE 18.4 mph - N/A   Overcast
12:35 PM -0.4 °F -21.7 °F -9.4 °F 66% 30.22 in 1.0 mi NE 18.4 mph - N/A   Overcast
12:55 PM -0.4 °F -20.5 °F -7.6 °F 72% 30.22 in 1.0 mi NE 16.1 mph - N/A   Overcast
1:15 PM -0.4 °F -16.7 °F -5.8 °F 78% 30.21 in 1.2 mi NNE 10.4 mph - N/A   Overcast
1:35 PM -0.4 °F -19.9 °F -7.6 °F 72% 30.20 in 3.0 mi NNE 15.0 mph - N/A   Overcast
1:55 PM -0.4 °F -17.6 °F -5.8 °F 78% 30.19 in 7.0 mi NNE 11.5 mph - N/A   Overcast
2:15 PM -0.4 °F -18.4 °F -9.4 °F 66% 30.20 in 2.5 mi NNE 12.7 mph 19.6 mph N/A   Overcast
2:35 PM -0.4 °F -21.2 °F -5.8 °F 78% 30.18 in 2.5 mi NNE 17.3 mph - N/A   Overcast
2:55 PM -0.4 °F -21.2 °F -7.6 °F 72% 30.18 in 1.5 mi NNE 17.3 mph - N/A   Overcast
3:15 PM -0.4 °F -21.2 °F -9.4 °F 66% 30.17 in 3.0 mi NNE 17.3 mph - N/A   Overcast
3:35 PM -2.2 °F -23.5 °F -7.6 °F 78% 30.14 in 3.0 mi NNE 17.3 mph 24.2 mph N/A   Overcast
3:55 PM -2.2 °F -24.1 °F -9.4 °F 71% 30.14 in 3.0 mi NNE 18.4 mph - N/A   Overcast
4:15 PM -2.2 °F -23.5 °F -11.2 °F 66% 30.14 in 1.0 mi NNE 17.3 mph - N/A   Overcast
4:35 PM -2.2 °F -22.9 °F -11.2 °F 66% 30.13 in 1.2 mi NE 16.1 mph 23.0 mph N/A   Overcast
4:55 PM -2.2 °F -21.5 °F -7.6 °F 78% 30.13 in 3.0 mi NNE 13.8 mph - N/A   Overcast
5:15 PM -2.2 °F -25.2 °F -7.6 °F 78% 30.11 in 2.0 mi NNE 20.7 mph - N/A   Overcast
5:35 PM -2.2 °F -23.5 °F -9.4 °F 71% 30.12 in 1.5 mi NNE 17.3 mph - N/A   Overcast
5:55 PM -2.2 °F -22.9 °F -11.2 °F 66% 30.12 in 1.2 mi NNE 16.1 mph - N/A   Overcast
6:15 PM -2.2 °F -25.7 °F -7.6 °F 78% 30.11 in 1.8 mi North 21.9 mph - N/A   Overcast
6:35 PM -4.0 °F -24.5 °F -7.6 °F 85% 30.11 in 1.8 mi North 15.0 mph 20.7 mph N/A   Overcast
6:55 PM -4.0 °F -27.6 °F -11.2 °F 71% 30.09 in 1.8 mi NNE 20.7 mph 25.3 mph N/A   Overcast
7:15 PM -4.0 °F -27.6 °F -11.2 °F 71% 30.09 in 1.8 mi NNE 20.7 mph 26.5 mph N/A   Overcast
7:35 PM -4.0 °F -27.6 °F -9.4 °F 78% 30.08 in 1.5 mi NNE 20.7 mph 25.3 mph N/A   Overcast
7:55 PM -4.0 °F -27.0 °F -9.4 °F 78% 30.06 in 1.2 mi NNE 19.6 mph 25.3 mph N/A   Overcast
8:15 PM -4.0 °F -26.4 °F -9.4 °F 78% 30.06 in 1.0 mi NNE 18.4 mph 23.0 mph N/A   Overcast
8:35 PM -4.0 °F -26.4 °F -13.0 °F 65% 30.04 in 1.2 mi North 18.4 mph 26.5 mph N/A   Overcast
8:55 PM -4.0 °F -27.0 °F -11.2 °F 71% 30.02 in 1.2 mi North 19.6 mph 28.8 mph N/A   Overcast
9:15 PM -4.0 °F -26.4 °F -7.6 °F 85% 30.02 in 0.8 mi North 18.4 mph 25.3 mph N/A   Overcast
9:35 PM -5.8 °F -29.9 °F -11.2 °F 77% 30.00 in 1.0 mi North 20.7 mph 29.9 mph N/A   Overcast
9:55 PM -4.0 °F -28.1 °F -9.4 °F 78% 29.99 in 0.8 mi NNE 21.9 mph 27.6 mph N/A   Overcast
10:15 PM -4.0 °F -29.1 °F -11.2 °F 71% 29.97 in 0.8 mi NNE 24.2 mph 31.1 mph N/A   Overcast
10:35 PM -4.0 °F -25.8 °F -11.2 °F 71% 29.95 in 1.0 mi North 17.3 mph 29.9 mph N/A   Overcast
10:55 PM -4.0 °F -25.8 °F -11.2 °F 71% 29.95 in 1.0 mi North 17.3 mph - N/A   Overcast
11:15 PM -2.2 °F -24.1 °F -9.4 °F 71% 29.94 in 1.0 mi North 18.4 mph 28.8 mph N/A   Overcast
11:35 PM -2.2 °F -23.5 °F -9.4 °F 71% 29.93 in 1.2 mi North 17.3 mph 25.3 mph N/A   Overcast
11:55 PM -4.0 °F -27.6 °F -9.4 °F 78% 29.91 in 1.2 mi North 20.7 mph 26.5 mph N/A   Overcast